Date,TemperatureHighF,TemperatureAvgF,TemperatureLowF,DewpointHighF,DewpointAvgF,DewpointLowF,HumidityHigh,HumidityAvg,HumidityLow,PressureMaxIn,PressureMinIn,WindSpeedMaxMPH,WindSpeedAvgMPH,GustSpeedMaxMPH,PrecipitationSumIn
2013-1-1,43.7,36.9,33.4,36.8,34.9,33.2,99,93,76,30.51,30.36,3,1,6,0.00
2013-1-2,48.6,36.8,32.9,39.5,34.8,32.7,99,93,68,30.37,30.20,3,2,7,0.00
2013-1-3,45.1,35.3,30.9,39.6,34.1,30.7,99,96,75,30.21,30.07,4,2,9,0.00
2013-1-4,43.9,39.9,36.7,42.1,39.2,36.4,99,97,92,30.29,30.12,2,1,6,0.00
2013-1-5,47.5,43.7,40.5,43.3,41.2,39.7,98,91,80,30.17,30.01,13,5,23,0.00
2013-1-6,44.4,42.8,39.6,41.0,39.4,37.4,99,88,78,30.07,29.89,9,4,16,0.00
2013-1-7,42.1,39.8,36.3,41.8,39.2,35.6,99,98,92,30.09,29.73,6,2,14,0.00
2013-1-8,48.7,39.9,36.1,45.4,37.8,34.1,97,92,82,30.11,29.51,11,3,21,0.00
2013-1-9,51.6,43.5,37.6,44.0,39.2,37.0,99,85,64,29.89,29.55,8,2,15,0.00
2013-1-10,51.4,38.1,29.5,40.6,34.1,28.0,99,87,55,30.15,29.89,3,1,7,0.00
2013-1-11,46.6,33.7,27.1,29.3,27.2,24.1,95,79,44,30.31,30.15,4,2,7,0.00
2013-1-12,46.2,34.0,29.8,30.9,27.8,25.8,91,78,55,30.42,30.31,3,2,7,0.00
2013-1-13,36.0,32.0,28.0,31.4,28.6,25.6,92,87,79,30.46,30.41,3,2,6,0.00
2013-1-14,37.0,34.4,32.4,34.9,33.1,30.0,99,95,87,30.57,30.44,2,1,6,0.00
2013-1-15,39.0,36.2,34.3,36.4,35.1,33.8,99,96,89,30.70,30.57,2,1,4,0.00
2013-1-16,38.5,37.0,36.3,37.3,35.7,34.6,98,95,91,30.68,30.53,2,1,6,0.00
2013-1-17,48.9,36.6,32.0,39.2,34.3,31.8,99,92,66,30.54,30.28,3,2,7,0.00
2013-1-18,41.4,36.2,32.0,37.8,35.2,31.8,99,96,85,30.34,30.25,3,1,6,0.00
2013-1-19,42.3,37.0,34.7,38.5,35.9,34.2,99,96,85,30.39,30.34,2,1,5,0.00
2013-1-20,39.2,35.9,33.1,37.9,34.8,32.1,99,96,90,30.40,30.28,2,0,5,0.00
2013-1-21,35.8,33.0,30.4,33.1,31.0,28.6,96,92,87,30.28,30.11,2,1,5,0.00
2013-1-22,38.5,35.0,32.2,35.4,29.2,22.2,93,80,57,30.13,29.90,4,2,8,0.00
2013-1-23,41.9,40.8,37.6,41.3,39.4,35.0,99,95,85,30.05,29.78,5,1,11,0.00
2013-1-24,44.4,41.7,38.7,40.0,35.7,27.6,91,79,59,30.15,29.93,15,5,24,0.00
2013-1-25,57.2,45.3,38.3,45.2,39.8,35.8,97,81,60,30.01,29.84,14,5,23,0.00
2013-1-26,46.2,42.0,39.0,41.8,39.9,38.0,97,93,78,29.98,29.81,6,1,13,0.00
2013-1-27,46.4,40.3,37.6,42.7,38.8,36.5,98,94,85,29.98,29.91,3,1,8,0.00
2013-1-28,41.5,39.7,38.8,39.9,37.9,36.1,97,93,89,30.02,29.94,3,0,9,0.00
2013-1-29,45.9,41.2,39.0,41.9,39.6,37.7,97,94,85,30.28,30.02,2,1,6,0.00
2013-1-30,50.0,42.3,39.4,42.7,39.9,35.0,96,91,75,30.35,30.27,2,0,5,0.00
2013-1-31,47.5,43.9,41.7,43.9,39.7,36.5,93,85,70,30.35,30.24,2,0,6,0.00
2013-2-1,52.9,44.3,39.9,46.4,39.0,33.5,95,82,65,30.42,30.31,2,0,5,0.00
2013-2-2,42.6,39.9,37.2,38.0,33.2,29.2,92,77,62,30.41,30.22,2,0,6,0.00
2013-2-3,44.1,41.9,40.3,41.9,39.2,34.9,94,90,81,30.27,30.12,5,1,12,0.00
2013-2-4,48.0,43.2,40.6,44.1,38.4,30.6,94,83,64,30.13,29.78,4,2,11,0.00
2013-2-5,48.6,46.2,43.3,43.4,41.9,39.4,94,85,78,29.78,29.66,18,11,30,0.00
2013-2-6,48.4,45.3,43.5,41.4,40.3,38.6,90,83,71,29.91,29.65,16,10,28,0.00
2013-2-7,54.3,44.7,36.7,45.1,38.8,35.1,94,80,61,30.18,29.65,18,8,34,0.00
2013-2-8,48.7,39.8,35.2,40.8,36.9,33.5,95,90,71,30.28,30.18,3,1,6,0.00
2013-2-9,43.2,40.2,38.1,41.6,38.6,36.3,95,94,92,30.34,30.24,3,1,7,0.00
2013-2-10,45.7,41.7,38.5,41.6,39.3,36.9,95,91,83,30.36,30.29,2,0,4,0.00
2013-2-11,51.3,42.6,40.3,45.4,40.5,38.7,95,93,77,30.31,30.28,3,1,8,0.00
2013-2-12,47.3,43.0,41.2,44.6,41.0,39.6,95,93,76,30.33,30.16,5,1,12,0.00
2013-2-13,53.8,44.8,41.5,44.6,40.9,12.6,94,87,65,30.44,30.20,3,1,5,0.00
2013-2-14,46.4,42.6,40.6,44.3,40.8,39.1,94,93,91,30.57,30.44,2,0,4,0.00
2013-2-15,49.3,43.9,41.7,45.5,40.3,34.4,94,87,66,30.57,30.14,2,0,4,0.00
2013-2-16,54.3,45.4,41.0,45.9,40.9,36.8,93,85,67,30.15,30.03,5,1,14,0.00
2013-2-17,50.9,42.3,37.2,41.2,37.2,34.8,93,82,65,30.19,30.07,5,1,12,0.00
2013-2-18,45.3,40.6,38.1,39.6,37.1,35.6,93,87,79,30.07,29.74,9,3,14,0.00
2013-2-19,55.4,44.0,35.4,43.0,37.9,33.8,95,81,51,29.96,29.74,3,1,11,0.00
2013-2-20,44.2,39.7,34.7,41.2,37.4,33.2,95,91,83,29.99,29.94,6,1,11,0.00
2013-2-21,50.2,44.4,41.4,42.4,39.4,37.7,90,83,68,29.96,29.87,11,5,21,0.00
2013-2-22,54.3,43.6,39.9,43.6,38.2,33.1,92,82,52,29.92,29.49,19,8,29,0.00
2013-2-23,54.5,44.3,37.6,40.4,35.9,32.1,91,73,48,30.28,29.75,4,1,20,0.00
2013-2-24,45.7,42.9,38.7,40.7,38.6,34.4,94,85,74,30.29,29.72,22,10,39,0.00
2013-2-25,54.5,45.0,39.9,41.0,37.1,30.4,92,75,46,30.21,29.63,21,6,33,0.00
2013-2-26,44.8,41.4,36.9,39.2,35.9,32.1,90,81,69,30.25,30.07,15,8,26,0.00
2013-2-27,52.2,41.3,35.6,40.3,37.5,34.3,95,87,61,30.27,30.11,10,3,15,0.00
2013-2-28,44.6,39.2,36.1,43.4,37.7,34.6,97,94,89,30.25,30.14,5,2,11,0.00
2013-3-1,50.7,45.8,41.9,48.5,44.0,39.9,97,93,83,30.19,30.13,6,3,11,0.00
2013-3-2,48.2,43.6,38.3,44.5,39.6,36.0,97,86,71,30.19,30.01,4,1,14,0.00
2013-3-3,54.3,43.8,35.4,40.1,36.6,33.9,95,77,53,30.28,30.14,3,1,13,0.00
2013-3-4,55.6,41.5,33.3,39.7,35.5,31.5,96,81,43,30.30,29.96,4,2,8,0.00
2013-3-5,46.9,40.8,37.4,40.6,36.0,30.1,96,83,67,29.97,29.78,3,0,7,0.00
2013-3-6,48.0,43.0,38.7,42.5,39.8,37.9,98,89,75,29.82,29.62,4,0,10,0.00
2013-3-7,48.4,43.8,40.5,42.8,40.7,38.9,95,89,80,30.10,29.82,7,2,16,0.00
2013-3-8,57.2,45.0,37.6,46.2,40.1,35.6,97,84,61,30.21,30.08,4,1,8,0.04
2013-3-9,53.2,43.2,35.6,45.2,39.9,34.1,95,89,67,30.45,30.21,5,1,12,0.00
2013-3-10,52.9,44.7,41.0,44.6,41.8,39.4,95,90,72,30.46,30.37,4,1,9,0.00
2013-3-11,49.3,44.2,40.3,43.5,40.8,38.8,95,88,77,30.41,30.09,7,2,17,0.00
2013-3-12,52.3,44.3,39.9,48.6,43.0,39.3,99,95,86,30.09,29.88,13,4,24,0.00
2013-3-13,54.1,51.6,49.8,49.3,48.6,47.6,94,90,82,30.06,29.92,14,7,24,0.00
2013-3-14,53.8,49.8,46.9,49.6,47.2,45.1,96,91,78,30.07,29.92,12,4,20,0.00
2013-3-15,55.0,47.8,43.3,51.9,45.8,42.3,98,93,83,30.15,30.06,4,2,9,0.00
2013-3-16,49.8,44.3,38.3,45.0,41.7,35.2,98,91,69,30.06,29.79,6,2,14,0.00
2013-3-17,56.7,45.0,37.9,36.8,33.7,26.9,86,67,36,30.10,29.89,5,1,15,0.00
2013-3-18,54.9,44.7,36.3,38.3,33.4,26.3,92,67,38,30.21,29.98,9,2,20,0.00
2013-3-19,46.9,41.4,35.4,41.2,35.8,31.6,92,81,63,30.21,29.48,10,4,19,0.00
2013-3-20,54.5,46.7,39.2,48.1,41.6,31.8,91,83,67,29.89,29.18,17,9,41,0.00
2013-3-21,52.2,38.8,33.3,39.6,33.1,30.4,93,81,45,30.09,29.89,3,1,8,0.00
2013-3-22,54.0,43.7,31.5,36.0,32.3,28.9,95,66,43,30.34,30.17,7,1,15,0.00
2013-3-23,50.5,42.0,35.4,37.7,33.4,27.1,90,73,52,30.37,30.28,8,3,19,0.00
2013-3-24,50.7,43.6,39.2,37.8,35.7,33.0,83,74,59,30.29,30.11,4,1,8,0.00
2013-3-25,59.9,48.6,41.4,42.8,36.8,24.9,84,66,32,30.12,29.94,4,1,8,0.00
2013-3-26,59.4,48.9,42.8,46.4,40.6,34.7,85,74,52,30.01,29.95,4,0,6,0.00
2013-3-27,65.1,51.4,41.0,48.0,42.8,38.8,93,74,44,29.98,29.91,3,0,6,0.00
2013-3-28,70.0,51.7,46.6,50.9,45.8,11.0,91,81,57,30.11,29.97,4,0,7,0.00
2013-3-29,61.0,51.0,43.0,50.2,45.9,41.4,96,83,64,30.25,30.11,4,1,7,0.00
2013-3-30,61.7,52.0,4.8,50.0,45.1,-0.7,96,79,63,30.27,30.09,3,2,6,0.00
2013-3-31,60.6,49.3,43.2,46.9,44.1,-36.5,92,82,54,30.09,29.88,3,0,4,0.00
2013-4-1,60.1,50.7,46.0,49.3,44.7,-4.9,92,81,10,30.06,29.91,9,2,21,0.00
2013-4-2,54.0,51.1,48.6,49.4,47.4,6.1,94,87,74,30.17,30.06,8,3,49,0.00
2013-4-3,61.9,51.9,46.6,52.9,46.7,-6.9,96,83,57,30.17,29.96,4,0,6,0.02
2013-4-4,54.0,49.9,47.7,50.8,47.5,44.8,99,91,79,29.97,29.53,11,1,17,0.00
2013-4-5,57.0,52.4,49.5,52.3,49.3,46.6,97,89,78,29.75,29.54,12,6,25,0.00
2013-4-6,57.7,50.4,46.0,48.1,43.8,39.3,94,78,55,29.82,29.54,20,7,34,0.00
2013-4-7,58.3,48.9,42.3,45.9,42.9,-10.2,95,81,59,29.82,29.59,6,1,14,0.00
2013-4-8,57.0,48.3,32.9,47.4,42.4,-17.6,98,82,10,30.19,29.82,7,2,16,0.00
2013-4-9,50.4,48.1,45.5,46.5,44.3,42.7,92,87,79,30.29,30.05,11,5,20,0.00
2013-4-10,63.7,53.0,47.7,48.7,45.4,39.5,96,77,43,30.15,29.78,16,5,27,0.00
2013-4-11,62.2,50.4,43.9,44.5,38.2,30.0,88,65,31,30.25,30.13,6,2,14,0.00
2013-4-12,46.6,43.7,36.3,42.9,38.8,35.1,96,83,72,30.13,29.56,15,7,27,0.00
2013-4-13,55.8,44.4,36.1,40.9,36.5,32.0,94,75,49,29.94,29.66,6,1,17,0.00
2013-4-14,55.6,45.3,36.5,43.3,39.4,35.7,98,81,56,29.99,29.89,4,2,8,0.00
2013-4-15,62.8,48.8,38.8,45.6,40.6,-2.9,94,74,49,30.16,29.89,4,1,10,0.00
2013-4-16,62.2,51.2,40.6,43.3,35.7,-0.9,82,58,25,30.35,30.16,5,1,8,0.00
2013-4-17,56.5,49.3,44.8,46.5,40.7,28.3,97,73,49,30.39,30.34,7,2,15,0.00
2013-4-18,49.3,46.6,44.6,46.7,45.1,43.5,99,95,88,30.39,30.11,9,2,14,0.00
2013-4-19,61.3,49.6,44.1,53.6,47.3,43.8,99,92,67,30.11,30.03,4,1,8,0.00
2013-4-20,61.5,51.4,45.1,49.6,44.5,41.0,99,78,51,30.19,30.10,3,0,10,0.00
2013-4-21,63.3,49.9,42.3,44.3,39.5,33.4,93,69,40,30.39,30.18,10,1,17,0.00
2013-4-22,65.8,51.0,37.9,41.2,34.4,23.2,92,57,21,30.54,30.38,4,1,8,0.00
2013-4-23,70.5,52.7,43.3,51.5,39.9,31.5,84,62,44,30.40,30.26,5,1,10,0.00
2013-4-24,68.9,55.7,42.4,48.0,40.6,33.3,87,60,27,30.32,30.02,4,1,10,0.00
2013-4-25,63.3,55.5,46.2,52.2,46.1,39.6,83,71,54,30.09,30.00,5,2,11,0.02
2013-4-26,75.9,53.1,49.8,73.8,48.5,45.3,93,84,73,30.20,30.09,6,2,17,0.00
2013-4-27,62.4,54.5,50.4,52.0,46.5,41.6,93,75,60,30.12,30.00,13,4,23,0.00
2013-4-28,68.4,51.0,45.9,45.8,40.2,34.8,95,68,43,30.16,29.85,9,3,17,0.00
2013-4-29,58.1,49.3,42.4,45.1,34.5,29.9,97,59,38,30.10,29.85,7,3,30,0.00
2013-4-30,59.4,48.9,37.2,39.7,35.5,29.7,89,62,37,30.41,30.10,4,1,14,0.00
2013-5-1,70.0,50.5,39.2,54.1,39.0,23.7,85,65,27,30.58,30.41,17,1,17,0.05
2013-5-2,64.9,53.3,42.8,48.4,41.7,36.4,85,66,41,30.54,30.38,4,1,11,0.00
2013-5-3,73.6,59.2,45.3,51.7,46.5,42.3,92,65,39,30.43,30.22,4,1,50,0.00
2013-5-4,78.1,62.0,26.4,53.9,48.8,19.0,87,64,30,30.28,30.00,4,1,11,0.05
2013-5-5,85.5,66.7,52.3,56.3,49.2,41.1,81,56,23,30.01,29.75,3,1,6,0.00
2013-5-6,84.4,69.1,55.6,56.1,48.7,43.8,73,49,31,29.84,29.70,3,1,11,0.00
2013-5-7,71.2,63.3,57.0,57.6,54.0,50.0,89,72,57,29.92,29.74,7,2,13,0.00
2013-5-8,70.0,59.7,53.6,57.2,54.6,52.1,98,84,62,30.09,29.91,8,2,19,0.00
2013-5-9,69.6,60.7,52.3,58.2,55.0,51.9,99,83,61,30.20,30.06,4,1,8,0.00
2013-5-10,76.8,62.3,54.5,58.9,55.0,50.4,98,78,45,30.18,30.07,4,2,8,0.00
2013-5-11,64.8,59.6,57.2,58.4,56.5,54.3,99,90,76,30.11,29.93,3,1,8,0.00
2013-5-12,66.0,61.7,57.2,60.2,58.0,53.4,99,88,73,29.98,29.91,11,5,21,0.00
2013-5-13,59.7,55.4,52.0,55.2,51.3,44.1,99,86,71,30.09,29.83,8,2,17,0.00
2013-5-14,62.6,55.0,48.0,50.7,46.7,42.8,90,74,57,30.17,30.08,8,3,19,0.00
2013-5-15,68.4,56.1,49.1,51.8,49.7,46.4,99,81,48,30.10,29.96,3,1,10,0.00
2013-5-16,70.7,58.8,52.9,55.1,52.4,48.9,94,81,53,29.99,29.85,5,2,8,0.00
2013-5-17,62.2,56.8,51.8,57.3,53.3,49.7,96,88,79,29.98,29.88,11,4,18,0.00
2013-5-18,61.5,56.9,53.1,54.1,51.0,48.2,89,81,69,30.24,29.97,7,3,14,0.00
2013-5-19,72.7,61.4,52.9,53.7,48.9,41.0,92,67,36,30.35,30.24,3,1,13,0.00
2013-5-20,61.9,55.6,50.5,55.1,50.8,45.1,99,84,72,30.31,29.91,5,2,11,0.00
2013-5-21,57.4,51.2,47.3,50.6,48.1,46.2,99,90,71,29.91,29.75,5,1,11,0.00
2013-5-22,64.6,54.6,46.9,52.1,48.8,46.1,98,82,55,29.85,29.79,4,1,8,0.00
2013-5-23,64.4,55.3,46.8,51.1,47.0,42.4,96,75,53,29.97,29.85,12,3,22,0.00
2013-5-24,66.4,56.4,45.7,52.1,47.7,43.2,96,74,51,29.98,29.94,7,3,16,0.00
2013-5-25,62.4,55.3,48.0,53.2,48.3,43.4,93,78,59,29.99,29.96,9,4,20,0.00
2013-5-26,62.8,56.0,47.5,55.0,51.1,46.4,98,84,70,29.97,29.89,11,4,23,0.01
2013-5-27,60.6,56.6,53.1,55.8,53.3,48.9,99,89,67,29.90,29.66,7,2,20,0.00
2013-5-28,58.1,55.5,52.3,54.2,51.8,48.6,98,88,73,29.81,29.68,8,4,20,0.00
2013-5-29,60.8,54.7,50.9,56.2,52.5,50.3,99,93,79,29.88,29.67,3,1,8,0.00
2013-5-30,59.9,53.7,50.5,53.2,50.4,47.0,99,89,67,30.19,29.88,10,3,21,0.00
2013-5-31,66.0,56.6,50.4,55.1,51.6,49.6,99,84,60,30.33,30.19,4,1,8,0.00
2013-6-1,66.6,57.4,51.8,54.7,51.9,49.3,96,82,62,30.22,30.08,3,1,10,0.00
2013-6-2,76.5,61.5,52.3,56.9,52.1,49.4,94,73,42,30.08,29.98,4,2,14,0.00
2013-6-3,74.3,63.1,52.5,54.8,51.2,46.9,91,67,43,30.10,30.02,4,1,11,0.01
2013-6-4,73.2,63.6,54.0,60.7,54.9,49.6,89,74,55,30.13,29.99,4,1,8,0.00
2013-6-5,80.1,68.3,58.5,61.5,53.1,32.6,91,62,20,30.07,29.98,3,1,10,0.00
2013-6-6,73.4,63.5,53.1,59.1,53.6,46.9,86,71,51,30.04,29.94,4,1,9,0.00
2013-6-7,67.8,62.8,60.1,58.5,56.6,53.1,92,80,66,30.09,29.93,10,3,18,0.01
2013-6-8,67.5,60.6,55.4,56.6,53.8,50.6,91,78,64,30.14,30.07,6,2,14,0.00
2013-6-9,73.2,61.8,52.5,53.9,49.4,29.2,96,67,37,30.07,29.98,4,1,13,0.00
2013-6-10,76.5,61.8,49.1,57.2,50.2,46.0,91,68,37,30.00,29.81,8,2,14,0.00
2013-6-11,68.5,59.3,53.8,62.9,49.9,0.5,93,72,10,30.03,29.83,11,6,59,0.01
2013-6-12,56.8,52.8,51.4,52.4,51.9,-1.1,99,97,77,30.11,30.03,2,0,4,0.00
2013-6-13,77.7,56.3,-0.6,65.1,48.0,-40.9,99,78,10,30.14,30.10,5,2,50,0.19
2013-6-14,106.2,76.0,3.2,99.9,66.5,-40.9,91,77,10,30.16,30.06,30,16,50,0.24
2013-6-15,77.4,63.6,41.4,59.1,52.8,14.3,98,72,10,30.06,29.90,24,1,7,0.05
2013-6-16,115.3,63.3,3.7,62.5,54.4,-32.2,89,74,10,30.02,29.93,8,2,24,0.11
2013-6-17,69.1,63.9,59.4,59.6,57.4,53.7,99,80,67,30.01,29.85,8,3,15,0.00
2013-6-18,70.0,62.1,54.7,59.3,56.2,-0.4,99,82,10,29.93,29.86,6,2,11,0.00
2013-6-19,73.6,63.3,55.9,58.7,55.7,4.0,99,78,52,29.93,29.85,3,1,8,0.00
2013-6-20,60.3,58.4,56.3,58.7,54.7,52.8,99,88,81,30.04,29.85,4,1,13,0.00
2013-6-21,68.0,61.2,55.9,58.4,56.3,0.9,99,85,64,30.13,30.04,9,3,15,0.00
2013-6-22,69.3,63.4,59.0,60.9,57.9,55.6,95,83,69,30.09,29.85,4,1,11,0.00
2013-6-23,69.4,61.7,54.1,62.5,58.9,53.9,99,91,71,29.86,29.58,4,1,9,0.00
2013-6-24,75.2,61.7,59.9,61.4,58.9,42.7,99,91,77,29.65,29.50,8,3,17,0.00
2013-6-25,68.9,61.4,57.9,62.1,58.3,55.6,99,90,71,29.75,29.62,9,3,17,0.00
2013-6-26,68.7,62.1,57.2,61.6,58.2,56.0,99,87,72,30.04,29.74,15,5,25,0.08
2013-6-27,67.8,62.8,59.0,64.3,60.7,55.7,99,93,83,30.19,30.00,3,1,8,0.00
2013-6-28,71.8,64.4,60.8,64.6,62.1,60.5,99,93,75,30.19,30.04,3,1,7,0.00
2013-6-29,78.8,70.1,61.5,74.3,64.0,61.3,99,82,61,30.07,29.95,4,1,8,0.00
2013-6-30,90.9,75.5,63.5,70.4,65.0,61.0,97,72,10,30.00,29.82,4,1,6,0.00
2013-7-1,88.5,76.0,67.1,71.8,66.4,62.2,91,74,45,29.95,29.85,6,1,16,0.00
2013-7-2,80.2,73.0,65.7,68.1,64.0,55.5,92,74,56,30.06,29.94,5,2,11,0.00
2013-7-3,78.8,68.5,60.1,61.0,56.2,53.0,80,66,47,30.12,29.99,4,2,12,0.00
2013-7-4,79.2,67.1,58.6,59.6,55.2,48.6,86,67,35,30.05,29.97,5,2,14,0.00
2013-7-5,79.0,67.5,56.5,59.6,54.9,48.8,92,66,39,30.00,29.89,4,1,15,0.19
2013-7-6,82.8,68.1,54.9,61.7,55.8,51.5,94,67,37,29.99,29.77,3,1,12,2.40
2013-7-7,81.7,68.0,58.3,60.8,57.0,54.2,90,69,42,29.87,29.78,4,1,8,0.00
2013-7-8,75.6,65.7,55.9,60.9,57.7,54.5,96,77,56,30.00,29.85,4,1,8,0.00
2013-7-9,79.3,69.1,60.6,66.8,61.0,55.3,88,76,58,30.04,29.89,4,2,8,0.00
2013-7-10,74.7,66.5,59.0,61.3,57.0,52.0,89,72,53,29.93,29.80,7,2,17,0.00
2013-7-11,73.2,65.4,59.0,54.2,49.8,40.7,76,58,33,29.96,29.83,4,2,19,0.00
2013-7-12,77.7,65.7,56.5,56.7,51.4,44.3,82,62,32,29.99,29.92,4,2,13,0.00
2013-7-13,76.3,65.3,56.3,58.2,52.7,43.0,84,65,44,30.13,29.99,4,1,8,0.00
2013-7-14,78.4,66.4,55.9,57.2,51.8,44.0,79,61,34,30.05,29.94,4,2,14,0.00
2013-7-15,85.5,69.7,54.5,57.3,51.6,32.9,92,58,18,30.03,29.86,4,1,10,0.00
2013-7-16,82.8,71.1,59.4,63.2,55.0,49.6,83,58,34,29.88,29.75,4,2,9,0.00
2013-7-17,79.3,70.3,66.4,62.9,58.4,52.1,78,66,49,30.09,29.76,12,5,28,0.00
2013-7-18,77.7,68.6,60.6,65.6,61.0,57.8,92,77,57,30.15,30.01,4,2,8,0.00
2013-7-19,80.6,69.6,61.3,65.4,62.1,58.5,93,78,54,30.07,29.93,4,1,8,0.00
2013-7-20,74.3,68.4,63.0,64.7,62.4,58.8,94,82,69,29.97,29.85,4,2,10,0.00
2013-7-21,75.6,67.8,61.3,65.5,60.9,57.7,91,79,64,29.89,29.81,4,1,8,0.00
2013-7-22,77.0,68.5,59.7,63.2,59.9,56.8,92,75,59,29.96,29.83,4,1,8,0.00
2013-7-23,88.2,72.8,61.9,64.5,58.0,52.5,85,62,31,30.00,29.87,4,1,8,0.00
2013-7-24,84.4,72.5,63.1,66.5,60.7,56.6,84,67,41,29.97,29.89,3,1,7,0.00
2013-7-25,82.6,71.5,60.8,64.3,60.3,55.9,91,69,43,30.01,29.93,4,1,8,0.00
2013-7-26,82.2,69.9,59.7,59.1,54.7,43.5,85,61,26,30.07,29.99,5,2,19,0.00
2013-7-27,81.7,67.8,57.6,59.6,53.8,44.1,88,64,28,30.06,29.90,4,2,15,0.00
2013-7-28,82.8,68.2,56.1,59.9,55.9,50.6,93,68,34,29.93,29.81,4,1,10,0.00
2013-7-29,83.5,68.3,60.1,64.9,59.1,53.6,88,73,48,29.92,29.83,4,1,8,0.00
2013-7-30,76.5,69.0,61.9,64.3,60.6,54.6,88,75,59,30.04,29.88,3,2,8,0.00
2013-7-31,76.5,69.1,61.0,65.0,61.4,57.3,93,77,61,30.03,29.87,8,2,19,0.00
2013-8-1,72.7,67.2,63.5,64.9,62.5,59.0,99,85,73,29.95,29.86,9,4,21,0.08
2013-8-2,66.2,63.3,61.9,60.8,59.7,58.3,92,88,82,30.06,29.91,7,5,18,0.01
2013-8-3,72.7,65.8,62.1,63.2,60.7,59.3,95,84,69,30.07,29.97,4,1,9,0.00
2013-8-4,80.8,70.0,62.8,65.8,61.5,58.6,94,76,51,30.00,29.85,4,1,8,0.00
2013-8-5,79.3,69.5,60.1,66.5,61.8,57.6,93,77,60,29.93,29.83,4,2,7,0.00
2013-8-6,78.3,70.4,61.9,66.1,61.4,55.8,85,73,55,29.92,29.83,4,2,10,0.00
2013-8-7,79.9,71.9,63.1,67.9,62.6,56.7,85,73,61,29.92,29.83,4,2,8,0.00
2013-8-8,79.2,71.1,64.0,67.4,63.5,57.5,89,77,63,29.94,29.82,6,2,11,0.00
2013-8-9,89.1,74.3,63.7,66.8,62.1,57.1,88,67,40,29.87,29.71,4,1,8,0.00
2013-8-10,80.6,71.6,65.8,68.3,63.9,60.0,87,77,58,29.90,29.76,8,3,17,0.00
2013-8-11,76.5,67.0,64.2,65.1,61.8,58.3,92,84,67,29.98,29.89,8,3,19,0.01
2013-8-12,75.7,67.9,63.7,64.6,61.4,58.1,92,80,59,29.98,29.91,5,2,11,0.00
2013-8-13,79.2,68.6,61.3,64.5,61.2,57.9,93,78,54,30.02,29.85,4,1,9,0.00
2013-8-14,74.3,67.2,61.5,65.5,61.0,55.5,89,80,61,29.86,29.81,8,1,18,0.00
2013-8-15,72.5,68.0,64.6,65.8,64.2,62.0,97,88,77,29.89,29.82,8,3,17,0.05
2013-8-16,70.5,66.2,63.5,68.1,64.5,62.8,99,94,86,29.92,29.87,10,3,20,0.00
2013-8-17,78.1,67.6,62.8,68.0,63.2,60.8,99,87,63,29.96,29.89,8,2,19,0.04
2013-8-18,73.0,66.0,61.5,63.3,60.1,57.0,95,81,66,30.02,29.95,7,3,17,0.00
2013-8-19,72.5,66.0,61.3,61.8,58.8,55.8,89,78,61,30.03,29.95,6,2,16,0.00
2013-8-20,81.1,69.3,61.2,59.4,53.7,41.8,84,61,28,30.10,30.00,3,1,10,0.00
2013-8-21,83.7,70.0,56.8,61.6,55.7,51.0,90,63,36,30.04,29.87,3,1,8,0.00
2013-8-22,86.5,72.3,60.3,64.8,59.2,54.6,86,65,37,29.88,29.69,3,1,7,0.00
2013-8-23,71.2,66.3,62.8,62.7,59.5,56.1,89,79,65,29.77,29.70,12,5,28,0.01
2013-8-24,73.8,64.9,59.7,61.9,58.9,56.6,93,81,58,29.83,29.76,6,2,14,0.00
2013-8-25,73.8,64.8,55.9,61.8,56.9,51.3,93,76,55,29.88,29.75,4,2,8,0.00
2013-8-26,74.3,64.7,58.8,61.0,56.9,51.6,90,76,57,29.82,29.72,11,4,24,0.11
2013-8-27,71.4,64.6,59.9,62.7,59.6,55.3,98,84,73,29.83,29.74,11,3,22,0.12
2013-8-28,72.0,64.6,59.5,65.3,61.8,59.3,99,91,76,29.82,29.73,2,0,7,0.22
2013-8-29,70.3,65.3,62.4,65.8,63.2,61.8,99,93,81,29.82,29.75,12,5,25,0.43
2013-8-30,72.9,64.9,59.7,62.7,59.6,57.1,94,83,67,30.09,29.82,9,2,18,0.06
2013-8-31,78.4,66.3,56.5,63.4,59.0,56.1,99,79,49,30.05,29.76,4,1,8,0.00
2013-9-1,74.7,66.2,58.6,64.4,60.6,56.0,93,83,60,29.80,29.69,4,1,7,0.00
2013-9-2,77.9,67.5,61.5,64.6,61.5,58.6,91,81,60,29.85,29.75,4,1,9,0.00
2013-9-3,77.7,65.1,60.4,65.2,60.8,57.8,99,87,58,29.97,29.84,4,1,8,0.32
2013-9-4,78.8,66.5,58.5,64.3,61.1,57.6,99,84,57,29.99,29.92,3,1,8,0.00
2013-9-5,69.1,64.1,59.2,63.0,60.5,57.0,95,88,79,29.97,29.83,3,1,8,0.00
2013-9-6,74.3,65.9,60.1,65.3,61.3,59.1,99,85,65,30.00,29.81,9,3,22,0.00
2013-9-7,79.2,66.2,60.8,65.2,61.6,58.8,94,86,61,30.03,29.93,4,1,7,0.00
2013-9-8,74.5,65.4,60.8,65.3,61.5,58.2,95,88,70,30.03,29.91,4,1,8,0.00
2013-9-9,79.5,66.9,59.9,65.2,59.6,52.6,93,78,50,30.00,29.89,3,1,8,0.00
2013-9-10,82.2,68.8,57.6,64.6,59.1,51.9,93,73,48,29.95,29.82,3,1,8,0.00
2013-9-11,92.1,72.5,61.0,67.3,61.3,56.2,90,70,35,29.89,29.78,3,1,7,0.00
2013-9-12,82.0,71.9,62.2,66.3,60.8,57.0,85,69,47,29.89,29.75,3,1,5,0.00
2013-9-13,73.2,66.0,61.2,64.9,61.4,57.9,96,85,74,29.88,29.75,3,1,8,0.00
2013-9-14,69.4,62.9,60.1,63.9,61.0,58.9,99,94,80,29.81,29.67,2,0,5,0.00
2013-9-15,65.3,61.9,60.3,64.2,61.1,59.3,99,97,92,29.70,29.59,12,2,25,0.08
2013-9-16,64.6,61.3,56.3,60.6,58.4,53.6,97,90,82,29.83,29.65,8,1,14,0.34
2013-9-17,74.3,61.7,54.3,61.3,54.7,51.4,93,79,48,29.83,29.74,3,1,6,0.00
2013-9-18,71.4,61.6,54.5,57.3,53.2,49.4,88,74,53,29.97,29.81,7,2,16,0.00
2013-9-19,70.0,62.3,56.3,58.8,53.7,48.0,86,74,56,29.96,29.64,8,2,18,0.00
2013-9-20,68.4,61.8,57.6,58.3,54.6,50.5,90,78,61,29.65,29.49,6,1,21,0.01
2013-9-21,68.4,61.7,56.7,60.9,56.2,51.1,90,82,67,29.61,29.53,6,3,14,0.00
2013-9-22,62.2,58.4,55.0,55.6,53.5,50.6,89,84,77,29.55,29.33,20,7,34,0.56
2013-9-23,66.2,58.4,51.4,53.1,49.7,44.5,87,74,53,29.85,29.53,7,3,14,0.02
2013-9-24,65.5,53.9,50.2,56.5,49.2,46.8,90,85,63,29.85,29.77,3,0,8,0.28
2013-9-25,71.4,56.2,48.4,53.7,48.7,45.9,92,78,46,29.93,29.81,3,0,10,0.00
2013-9-26,68.4,56.0,46.2,54.2,48.8,43.1,90,78,56,30.05,29.92,4,1,8,0.00
2013-9-27,55.8,52.8,49.6,52.0,49.3,46.2,90,88,74,29.98,29.69,4,1,11,0.40
2013-9-28,58.5,55.0,52.5,54.0,50.9,47.8,89,86,75,29.69,29.09,17,9,36,0.53
2013-9-29,57.7,53.7,52.0,52.1,49.8,46.7,90,87,79,29.32,28.92,20,12,34,0.76
2013-9-30,54.5,52.4,50.2,50.7,47.7,43.5,89,84,70,29.73,29.07,17,7,31,0.38
2013-10-1,57.7,50.8,46.8,48.0,45.7,43.7,90,83,64,29.99,29.73,8,4,19,0.17
2013-10-2,53.4,49.7,47.7,50.0,46.8,44.7,91,90,87,30.14,29.96,3,1,8,0.26
2013-10-3,62.6,51.3,44.1,51.3,46.7,42.8,97,85,62,30.39,30.14,2,0,8,0.00
2013-10-4,56.1,50.1,45.3,50.2,46.7,43.1,93,88,79,30.41,30.27,3,1,8,0.01
2013-10-5,60.1,54.3,50.9,54.9,50.6,47.8,89,87,82,30.28,30.07,5,1,11,0.00
2013-10-6,67.6,58.0,50.4,56.5,51.4,47.7,93,79,55,30.08,29.66,11,4,21,0.01
2013-10-7,62.2,55.5,48.4,52.5,49.8,45.3,90,81,66,29.88,29.65,14,4,27,0.20
2013-10-8,64.4,54.3,46.4,49.2,46.1,43.3,90,75,54,30.03,29.86,4,1,14,0.00
2013-10-9,58.3,50.2,44.4,51.3,45.4,41.7,90,84,72,30.07,29.87,6,2,14,0.00
2013-10-10,65.3,53.0,47.7,49.0,46.0,42.7,89,79,47,30.00,29.86,2,1,8,0.00
2013-10-11,57.6,49.4,43.2,51.6,45.0,40.4,90,85,72,30.08,30.00,2,1,4,0.00
2013-10-12,64.8,51.2,44.4,50.4,45.6,41.5,91,82,51,30.15,30.01,3,1,7,0.00
2013-10-13,61.3,51.3,44.6,51.5,46.1,41.5,90,83,66,30.30,30.15,2,1,6,0.00
2013-10-14,63.7,51.4,43.9,51.7,46.5,41.5,93,84,62,30.38,30.29,2,1,6,0.00
2013-10-15,58.1,50.1,46.4,52.1,46.6,43.3,92,88,78,30.32,30.11,2,1,6,0.00
2013-10-16,63.9,51.2,46.0,53.7,47.9,43.5,95,89,66,30.17,30.08,2,0,7,0.00
2013-10-17,59.4,48.6,44.2,53.6,46.5,42.9,96,92,77,30.23,30.13,2,0,5,0.00
2013-10-18,51.1,46.8,43.9,49.3,45.1,42.4,97,94,90,30.20,30.09,1,0,4,0.00
2013-10-19,52.0,47.9,44.8,48.7,45.7,43.4,96,92,85,30.14,30.09,1,0,5,0.01
2013-10-20,51.8,48.9,46.6,48.8,46.2,44.4,93,91,89,30.15,30.08,1,0,5,0.00
2013-10-21,53.2,48.5,46.4,50.1,46.0,44.2,94,91,88,30.12,30.03,0,0,4,0.00
2013-10-22,53.2,47.8,43.5,50.2,45.4,42.1,95,92,89,30.08,29.96,0,0,0,0.00
2013-10-23,64.2,49.2,43.7,53.8,46.3,42.3,96,90,67,30.00,29.91,0,0,0,0.00
2013-10-24,64.6,49.9,43.2,54.1,46.8,42.4,97,90,66,30.02,29.93,2,0,4,0.01
2013-10-25,53.8,49.1,45.9,50.4,46.7,44.4,96,91,88,30.27,30.02,5,1,11,0.00
2013-10-26,53.1,50.5,47.5,49.9,47.3,44.7,90,89,87,30.30,30.07,2,0,9,0.01
2013-10-27,70.5,56.2,45.7,50.9,43.5,27.7,90,66,33,30.07,29.87,5,1,12,0.00
2013-10-28,66.2,55.1,45.0,42.0,32.5,24.9,67,43,28,29.99,29.84,5,1,11,0.00
2013-10-29,61.5,48.8,41.2,45.2,38.9,32.6,87,70,42,29.94,29.88,3,2,7,0.00
2013-10-30,56.7,47.7,42.6,46.4,42.3,37.6,92,82,63,30.01,29.93,7,2,17,0.09
2013-10-31,54.0,49.5,46.6,50.8,46.9,44.2,92,91,88,30.17,29.98,4,1,9,0.01
2013-11-1,58.5,51.6,49.6,52.1,48.5,46.8,93,89,80,30.18,29.72,4,1,11,0.46
2013-11-2,50.2,45.9,40.3,48.2,43.8,38.4,95,92,89,29.78,29.42,5,2,21,0.80
2013-11-3,59.4,44.5,35.8,44.6,38.8,33.7,96,82,49,30.04,29.78,3,1,7,0.00
2013-11-4,48.0,41.9,35.4,39.1,36.0,31.8,92,80,60,30.11,30.01,6,2,11,0.01
2013-11-5,46.9,42.3,38.1,41.3,38.8,33.7,92,87,69,30.19,29.98,3,0,8,0.00
2013-11-6,50.7,44.2,37.9,43.8,40.7,35.8,93,88,76,30.26,29.90,3,1,9,0.22
2013-11-7,58.5,48.2,43.7,52.4,45.3,41.1,93,90,75,29.90,29.53,8,2,16,0.30
2013-11-8,60.3,48.1,41.4,51.2,43.4,39.2,93,84,61,30.04,29.85,5,1,12,0.02
2013-11-9,49.6,45.5,43.0,44.0,42.3,40.5,91,89,72,30.09,30.03,4,1,11,0.20
2013-11-10,57.4,43.7,39.0,48.5,41.1,37.7,95,91,69,30.13,30.07,3,0,8,0.00
2013-11-11,58.5,46.2,42.4,44.9,42.0,39.7,93,86,58,30.12,29.91,3,0,8,0.00
2013-11-12,62.4,53.6,46.8,55.1,49.2,42.5,89,85,73,30.20,29.88,9,4,17,0.37
2013-11-13,62.4,52.2,46.9,52.3,47.5,43.5,90,84,65,30.31,30.19,5,1,9,0.00
2013-11-14,59.4,50.3,44.6,50.2,44.2,40.4,89,81,56,30.22,29.96,4,1,13,0.00
2013-11-15,44.8,42.9,41.2,41.9,40.2,38.5,92,90,87,29.95,29.23,6,2,20,0.37
2013-11-16,55.6,43.2,36.5,43.3,36.5,31.4,93,78,51,29.64,29.25,8,1,18,0.00
2013-11-17,51.8,44.8,36.7,44.8,39.0,32.2,87,80,73,29.75,29.62,7,2,23,0.00
2013-11-18,47.5,44.5,40.8,43.4,41.0,38.4,91,87,79,29.77,29.50,3,1,8,0.19
2013-11-19,47.1,40.3,32.0,39.7,31.1,23.1,92,72,42,30.04,29.51,7,2,29,0.00
2013-11-20,48.2,36.3,29.7,32.1,29.2,27.3,92,77,47,30.46,30.04,3,2,7,0.00
2013-11-21,50.2,37.2,30.7,35.3,31.4,28.2,90,81,52,30.61,30.46,3,2,6,0.00
2013-11-22,53.6,39.1,32.7,38.8,34.0,30.7,93,83,55,30.62,30.41,3,1,6,0.00
2013-11-23,52.5,39.8,34.3,42.9,36.3,32.3,92,87,66,30.41,30.16,3,1,5,0.00
2013-11-24,54.9,43.3,37.2,45.0,39.5,34.8,92,87,67,30.19,30.12,3,1,5,0.00
2013-11-25,58.1,44.5,39.0,44.3,39.9,36.6,92,84,60,30.25,30.18,4,1,6,0.00
2013-11-26,53.4,43.3,38.3,44.3,39.7,35.8,91,87,70,30.20,30.03,3,1,10,0.00
2013-11-27,52.7,45.7,42.4,45.4,41.5,38.1,90,85,73,30.06,29.91,3,1,6,0.00
2013-11-28,48.6,45.4,42.4,45.0,42.5,39.7,90,89,86,30.11,29.95,3,0,6,0.01
2013-11-29,57.0,46.8,45.3,50.8,44.0,42.7,92,90,77,30.19,30.09,5,0,12,0.39
2013-11-30,46.9,45.1,44.1,44.1,42.8,42.1,94,92,89,30.22,29.91,3,1,9,0.31
2013-12-1,58.8,46.9,38.5,50.4,42.7,34.2,95,86,64,29.92,29.59,4,2,16,0.20
2013-12-2,52.5,40.6,32.4,38.2,32.7,25.5,89,74,52,30.07,29.68,3,1,13,0.01
2013-12-3,50.4,36.9,29.8,33.5,28.9,25.6,91,75,45,30.28,30.07,3,1,7,0.00
2013-12-4,45.3,35.5,29.3,32.2,27.4,25.0,91,73,48,30.32,30.25,5,2,9,0.00
2013-12-5,36.0,33.1,28.8,28.2,25.0,21.2,88,72,60,30.25,30.15,8,4,14,0.00
2013-12-6,42.6,30.6,24.1,25.5,16.5,1.0,88,58,33,30.28,30.14,4,2,11,0.00
2013-12-7,42.3,28.6,21.0,19.9,12.1,1.5,79,52,19,30.33,30.26,3,2,6,0.00
2013-12-8,39.2,29.8,25.7,25.0,22.3,19.1,84,74,54,30.48,30.32,4,1,9,0.00
2013-12-9,34.2,32.3,30.4,31.0,28.4,24.4,94,85,74,30.48,30.39,3,1,7,0.00
2013-12-10,38.1,34.6,32.4,35.0,33.1,30.8,97,94,88,30.41,30.35,1,0,4,0.01
2013-12-11,41.0,36.8,34.9,36.5,34.2,32.9,93,90,83,30.37,30.08,3,1,7,0.00
2013-12-12,40.6,37.8,35.2,39.4,36.3,33.2,97,94,89,30.08,29.90,4,1,14,0.33
2013-12-13,43.0,41.3,39.4,41.9,40.6,38.6,99,97,95,30.34,30.04,3,0,6,0.04
2013-12-14,49.1,45.4,41.9,45.0,43.1,41.1,97,92,84,30.34,30.17,8,3,17,0.01
2013-12-15,57.6,46.8,41.4,51.4,43.9,40.3,96,90,74,30.34,30.15,7,2,16,0.01
2013-12-16,43.2,41.0,39.0,42.5,40.4,38.2,99,98,95,30.40,30.19,4,1,8,0.00
2013-12-17,45.9,42.7,40.1,43.0,40.8,38.8,96,93,89,30.20,29.96,5,1,10,0.00
2013-12-18,49.1,41.1,33.4,42.5,35.5,30.6,93,81,60,30.21,29.93,5,2,19,0.05
2013-12-19,38.3,34.5,30.0,32.0,29.4,24.6,95,82,71,30.29,30.10,4,1,8,0.00
2013-12-20,35.1,33.9,32.9,34.0,32.8,31.4,98,96,93,30.10,29.65,8,1,21,0.25
2013-12-21,37.8,36.1,34.5,36.7,35.4,34.0,99,97,96,30.10,29.81,2,0,4,0.06
2013-12-22,40.8,38.8,36.7,40.0,38.2,35.9,99,97,96,30.21,30.08,3,0,8,0.26
2013-12-23,54.9,44.0,39.9,49.8,41.5,38.3,99,91,69,30.40,29.95,4,2,11,0.08
2013-12-24,51.8,39.7,36.5,44.1,37.8,35.3,96,93,71,30.54,30.40,3,1,6,0.00
2013-12-25,44.2,39.1,34.7,40.0,37.5,33.9,98,94,83,30.48,30.32,4,1,7,0.07
2013-12-26,44.6,40.8,39.2,42.1,39.8,38.2,99,96,91,30.33,30.11,3,1,8,0.02
2013-12-27,53.2,44.5,38.8,47.0,42.1,37.3,99,91,75,30.26,29.91,7,2,23,0.09
2013-12-28,46.4,41.1,36.3,43.3,39.8,35.6,99,95,88,30.46,30.27,3,0,6,0.00
2013-12-29,42.4,41.0,39.6,42.0,40.6,38.8,99,99,97,30.41,30.25,0,0,0,0.07
2013-12-30,45.1,42.4,41.2,43.6,41.8,40.7,99,98,93,30.26,30.01,3,0,7,0.01
2013-12-31,46.4,43.5,41.2,46.0,43.2,40.9,99,99,99,30.32,30.08,1,0,4,0.01
2014-1-1,44.8,42.6,41.4,43.4,42.1,41.1,99,98,94,30.34,30.17,3,0,7,0.04
2014-1-2,46.4,42.9,40.1,45.1,42.3,38.1,99,98,91,30.18,29.74,6,1,17,0.58